FLOCK 3P-36

Last updated on Wed Feb 14 2018 16:20:26 GMT+0000 (Coordinated Universal Time)

1 41986U 17008AQ 18044.89657509 .00001097 00000-0 48359-4 0 9990 2 41986 97.4667 110.4877 0009248 73.4760 286.7492 15.23897197 54657
UTC large
Height (km)
Speed (km/s)
/
Latitude / Longitude
Inclination (degrees)
Orbital Period (minutes)
Azimuth
Elevation
Range (km)
Doppler Factor

Next 0 passes for location: London (51.5072 / 0.1276)

Sorry there are no passes over London.